World > North America > United States > Illinois

Meadows, Illinois Regional Weather

Lat: 40.74N, Lon: 88.8W
Wx Zone: ILZ038Web Search

Ads allow us to feed your daily addiction for the world's greatest weather information. We're determined to offer quality sponsors, in the least annoying way possible.

Feedback


°F Click to change Meadows hourly weather to Imperial units.Click to change Meadows hourly weather to Metric units. °C
Meadows Weather Map
UTC Time: 5/15/2021, 05:27
Your Time:

Meadows, IL Regional Weather

Expires:202105150600;;134530
ASUS43 KLOT 150509
RWRIL 

ILLINOIS REGIONAL WEATHER ROUNDUP
NATIONAL WEATHER SERVICE CHICAGO/ROMEOVILLE IL
1200 AM CDT SAT MAY 15 2021

NOTE: "FAIR" INDICATES FEW OR NO CLOUDS BELOW 12,000 FEET WITH NO
SIGNIFICANT WEATHER AND/OR OBSTRUCTIONS TO VISIBILITY.

* THESE STATIONS ARE NOT UNDER NWS QUALITY CONTROL. THEY ALSO MAY NOT
  REPORT WEATHER SUCH AS PRECIPITATION OR FOG.


ILZ028>032-037-038-041>044-048-051>054-059>061-150600-
CENTRAL ILLINOIS
  
CITY           SKY/WX    TMP DP  RH WIND       PRES   REMARKS
PONTIAC        PTCLDY    52  38  58 SE3       30.23F                  
BLOOMINGTON    PTCLDY    52  38  58 S8        30.24F                  
DECATUR        MOCLDY    56  38  50 S7        30.23F                  
PEORIA         CLOUDY    60  34  37 S5        30.21S                  
LACON*         CLOUDY    57  36  44 CALM      30.20S                  
LINCOLN*       MOCLDY    56  34  43 S6        30.22F                  
SPRINGFIELD    CLOUDY    60  37  42 SE9       30.21F                  
TAYLORVILLE    MOCLDY    57  34  41 SE8       30.22F                  
$$


SKY/WX - Weather  TMP - Temperature  DP - Dew Point  RH - Relative Humidity
WIND - Wind Direction/Speed PRES - Barometric Pressure VSB - Visibility
WCI - Wind Chill Index E13G22 Wind - East Wind 13 mph/Gusts of 22 mph